Regional Weather Roundup
Issued by NWS

Home | Current Version | Previous Version | Text Only | Print | Product List | Glossary On
Versions: 1 2 3 4 5 6 7 8 9 10 11 12 13 14 15 16 17 18 19 20 21 22 23 24 25 26 27 28 29 30 31 32 33 34 35 36 37 38 39 40 41 42 43 44 45 46 47 48 49 50
000
ASUS45 KPSR 030210
RWRAZ

ARIZONA HOURLY REGIONAL WEATHER ROUNDUP
NATIONAL WEATHER SERVICE PHOENIX AZ
700 PM MST WED SEP 02 2015

NOTE: FAIR INDICATES FEW OR NO CLOUDS BELOW 12,000 FEET WITH NO
SIGNIFICANT WEATHER AND/OR OBSTRUCTIONS TO VISIBILITY.

AZZ001>003-036-030300-
NORTHWEST ARIZONA

CITY           SKY/WX    TMP DP  RH WIND       PRES   REMARKS
BULLHEAD CITY  PTCLDY    99  41  13 S16G23    29.74S
KINGMAN        MOCLDY    86  35  16 SW16      29.95F
$$

AZZ004>008-015-016-018-030300-
NORTH CENTRAL ARIZONA

CITY           SKY/WX    TMP DP  RH WIND       PRES   REMARKS
GRAND CANYON   PTCLDY    70  39  32 SW8       30.19S
WILLIAMS       PTCLDY    68  39  34 SW6       30.26F
PRESCOTT       PTCLDY    77  38  24 S8        30.11R
FLAGSTAFF      PTCLDY    66  40  38 SW8       30.25S
PAYSON         PTCLDY    77  37  24 CALM      30.15S
PAGE           CLOUDY    84  53  34 S15G24    29.97S
$$

AZZ009>014-017-030300-
NORTHEAST ARIZONA

CITY           SKY/WX    TMP DP  RH WIND       PRES   REMARKS
WINSLOW        PTCLDY    69  56  62 SE7       30.11R
SAINT JOHNS    LGT RAIN  61  56  83 SE16      30.20F
WINDOW ROCK    CLOUDY    63  50  62 N12       30.28R
SHOW LOW       MOCLDY    63  50  63 E8        30.26R
$$

AZZ023-030300-
GREATER PHOENIX AREA

CITY           SKY/WX    TMP DP  RH WIND       PRES   REMARKS
PHOENIX        MOCLDY    98  49  18 NE9       29.79S
BUCKEYE        PTCLDY    91  55  29 S5        29.80S
GLENDALE       MOCLDY    99  48  18 VRB5      29.81S
LUKE AFB       PTCLDY    98  50  19 N3        29.79R
DEER VALLEY    PTCLDY    94  48  20 E3        29.83S
SCOTTSDALE     PTCLDY    95  48  20 CALM      29.85S
MESA-FALCON    MOCLDY    97  48  19 N12       29.82S
MESA-GATEWAY   MOCLDY    97  54  23 VRB5      29.84F
CHANDLER       MOCLDY    95  57  28 E6        29.81S
$$

AZZ027-028-030300-
SOUTHWEST MARICOPA COUNTY AND PINAL COUNTY

CITY           SKY/WX    TMP DP  RH WIND       PRES   REMARKS
CASA GRANDE    MOCLDY    97  54  23 CALM      29.83R
GILA BEND      PTCLDY    97  53  22 W8        29.78S
$$

AZZ503-504-507>509-030300-
SOUTHEAST ARIZONA

CITY           SKY/WX    TMP DP  RH WIND       PRES   REMARKS
TUCSON         CLOUDY    86  57  37 SE13      29.97R
DAVIS-MONTHAN  CLOUDY    83  60  45 SE9       29.95S
RYAN FIELD     CLEAR     90  55  31 E9        29.94R
NOGALES        CLOUDY    71  62  73 CALM      30.06S
SIERRA VISTA   CLOUDY    71  60  69 NW6       30.14S
DOUGLAS        CLOUDY    74  57  55 S5        30.11R
SAFFORD        CLOUDY    75  60  59 S8        30.02R
$$

AZZ020-021-025-026-031-030300-
SOUTHWEST ARIZONA

CITY           SKY/WX    TMP DP  RH WIND       PRES   REMARKS
YUMA           MOCLDY    97  47  18 S7        29.73S
$$

CAZ031-033-041-043-047-048-061-030300-
SOUTHERN CALIFORNIA

CITY           SKY/WX    TMP DP  RH WIND       PRES   REMARKS
DOWNTOWN L.A.  CLEAR     72  59  63 VRB3      29.88S
L.A. AIRPORT   PTCLDY    69  61  75 W10       29.89F
SAN DIEGO      MOCLDY    71  57  61 NW6       29.92S
BURBANK        CLEAR     73  58  59 S9        29.88S
ONTARIO        PTCLDY    77  57  50 SW12      29.87S
RIVERSIDE      CLEAR     78  59  51 W9G17     29.87S
PALM SPRINGS   PTCLDY    96  37  12 NW13G24   29.75S
EL CENTRO NAS  PTCLDY    99  46  16 W3        29.72R
IMPERIAL       CLEAR    101  47  16 E5        29.69S
BLYTHE         MOCLDY    98  48  18 S10       29.73S
NEEDLES        MOCLDY    99  40  13 S14       29.75F
$$

NVZ020-UTZ003-030300-
SOUTHERN NEVADA-UTAH

CITY           SKY/WX    TMP DP  RH WIND       PRES   REMARKS
LAS VEGAS      PTCLDY    96  39  13 S15       29.75S
SALT LAKE CITY MOCLDY    87  39  18 S9        29.84F
$$

NMZ009-TXZ055-030300-
NEW MEXICO-WEST TEXAS

CITY           SKY/WX    TMP DP  RH WIND       PRES   REMARKS
ALBUQUERQUE    CLOUDY    79  45  29 NE9       30.15R
EL PASO        CLOUDY    90  46  21 W21G28    29.97R
$$


........................KEY........................
SKY/WX - SKY CONDITION/WEATHER
TMP    - TEMPERATURE IN FAHRENHEIT
DP     - DEW POINT IN FAHRENHEIT
RH     - RELATIVE HUMIDITY IN PERCENT
WIND   - DIRECTION AND SPEED IN MILES PER HOUR (MPH)
VRB    - VARIABLE WIND DIRECTION
PRES   - MEAN SEA LEVEL PRESSURE IN INCHES OF MERCURY
         F - FALLING PRESSURE   R - RISING PRESSURE
         S - STEADY PRESSURE
VSB    - VISIBILITY IN MILES
HX     - HEAT INDEX IN FAHRENHEIT
WCI    - WIND CHILL INDEX IN FAHRENHEIT
TC     - TEMPERATURE IN CELSIUS WHICH IS ALSO KNOWN AS
         TEMPERATURE IN CENTIGRADE
AFB    - AIR FORCE BASE
         LUKE AFB IS LUKE AIR FORCE BASE
         DAVIS-MONTHAN IS DAVIS-MONTHAN AIR FORCE BASE
NAS    - NAVAL AIR STATION
         EL CENTRO NAS IS EL CENTRO NAVAL AIR STATION
N/A    - NOT AVAILABLE



USA.gov is the U.S. government's official web portal to all federal, state and local government web resources and services.